Year,Month,Day,Hour,Minute,Value (Times are PST for temperature in C)
2014,07,15,00,00,21.40
2014,07,15,00,01,21.40
2014,07,15,00,02,21.40
2014,07,15,00,03,21.40
2014,07,15,00,04,21.50
2014,07,15,00,05,21.50
2014,07,15,00,06,21.50
2014,07,15,00,07,21.50
2014,07,15,00,08,21.50
2014,07,15,00,09,21.50
2014,07,15,00,10,21.40
2014,07,15,00,11,21.40
2014,07,15,00,12,21.40
2014,07,15,00,13,21.40
2014,07,15,00,14,21.40
2014,07,15,00,15,21.40
2014,07,15,00,16,21.40
2014,07,15,00,17,21.40
2014,07,15,00,18,21.40
2014,07,15,00,19,21.40
2014,07,15,00,20,21.40
2014,07,15,00,21,21.40
2014,07,15,00,22,21.40
2014,07,15,00,23,21.40
2014,07,15,00,24,21.40
2014,07,15,00,25,21.30
2014,07,15,00,26,21.20
2014,07,15,00,27,21.10
2014,07,15,00,28,21.00
2014,07,15,00,29,20.90
2014,07,15,00,30,20.80
2014,07,15,00,31,20.70
2014,07,15,00,32,20.60
2014,07,15,00,33,20.50
2014,07,15,00,34,20.40
2014,07,15,00,35,20.30
2014,07,15,00,36,20.20
2014,07,15,00,37,20.10
2014,07,15,00,38,20.00
2014,07,15,00,39,19.90
2014,07,15,00,40,19.80
2014,07,15,00,41,19.80
2014,07,15,00,42,19.70
2014,07,15,00,43,19.70
2014,07,15,00,44,19.60
2014,07,15,00,45,19.60
2014,07,15,00,46,19.50
2014,07,15,00,47,19.40
2014,07,15,00,48,19.30
2014,07,15,00,49,19.40
2014,07,15,00,50,19.40
2014,07,15,00,51,19.40
2014,07,15,00,52,19.40
2014,07,15,00,53,19.40
2014,07,15,00,54,19.40
2014,07,15,00,55,19.40
2014,07,15,00,56,19.40
2014,07,15,00,57,19.40
2014,07,15,00,58,19.30
2014,07,15,00,59,19.30
2014,07,15,01,00,19.20
2014,07,15,01,01,19.20
2014,07,15,01,02,19.10
2014,07,15,01,03,19.00
2014,07,15,01,04,19.00
2014,07,15,01,05,18.90
2014,07,15,01,06,18.80
2014,07,15,01,07,18.80
2014,07,15,01,08,18.70
2014,07,15,01,09,18.70
2014,07,15,01,10,18.70
2014,07,15,01,11,18.70
2014,07,15,01,12,18.60
2014,07,15,01,13,18.60
2014,07,15,01,14,18.60
2014,07,15,01,15,18.60
2014,07,15,01,16,18.60
2014,07,15,01,17,18.60
2014,07,15,01,18,18.70
2014,07,15,01,19,18.70
2014,07,15,01,20,18.80
2014,07,15,01,21,18.80
2014,07,15,01,22,18.80
2014,07,15,01,23,18.80
2014,07,15,01,24,18.80
2014,07,15,01,25,18.90
2014,07,15,01,26,18.90
2014,07,15,01,27,18.90
2014,07,15,01,28,19.00
2014,07,15,01,29,19.10
2014,07,15,01,30,19.10
2014,07,15,01,31,19.10
2014,07,15,01,32,19.20
2014,07,15,01,33,19.20
2014,07,15,01,34,19.20
2014,07,15,01,35,19.30
2014,07,15,01,36,19.30
2014,07,15,01,37,19.30
2014,07,15,01,38,19.30
2014,07,15,01,39,19.30
2014,07,15,01,40,19.40
2014,07,15,01,41,19.40
2014,07,15,01,42,19.40
2014,07,15,01,43,19.50
2014,07,15,01,44,19.60
2014,07,15,01,45,19.60
2014,07,15,01,46,19.60
2014,07,15,01,47,19.60
2014,07,15,01,48,19.60
2014,07,15,01,49,19.60
2014,07,15,01,50,19.70
2014,07,15,01,51,19.70
2014,07,15,01,52,19.70
2014,07,15,01,53,19.70
2014,07,15,01,54,19.70
2014,07,15,01,55,19.70
2014,07,15,01,56,19.80
2014,07,15,01,57,19.80
2014,07,15,01,58,19.70
2014,07,15,01,59,19.70
2014,07,15,02,00,19.70
2014,07,15,02,01,19.70
2014,07,15,02,02,19.70
2014,07,15,02,03,19.70
2014,07,15,02,04,19.50
2014,07,15,02,05,19.50
2014,07,15,02,06,19.40
2014,07,15,02,07,19.40
2014,07,15,02,08,19.30
2014,07,15,02,09,19.30
2014,07,15,02,10,19.30
2014,07,15,02,11,19.20
2014,07,15,02,12,19.20
2014,07,15,02,13,19.20
2014,07,15,02,14,19.10
2014,07,15,02,15,19.10
2014,07,15,02,16,19.10
2014,07,15,02,17,19.10
2014,07,15,02,18,19.00
2014,07,15,02,19,19.00
2014,07,15,02,20,18.90
2014,07,15,02,21,18.90
2014,07,15,02,22,18.90
2014,07,15,02,23,18.90
2014,07,15,02,24,18.90
2014,07,15,02,25,18.90
2014,07,15,02,26,18.80
2014,07,15,02,27,18.80
2014,07,15,02,28,18.80
2014,07,15,02,29,18.80
2014,07,15,02,30,18.90
2014,07,15,02,31,18.90
2014,07,15,02,32,18.90
2014,07,15,02,33,18.90
2014,07,15,02,34,18.90
2014,07,15,02,35,18.90
2014,07,15,02,36,18.90
2014,07,15,02,37,18.90
2014,07,15,02,38,18.90
2014,07,15,02,39,18.90
2014,07,15,02,40,18.90
2014,07,15,02,41,18.90
2014,07,15,02,42,18.80
2014,07,15,02,43,18.70
2014,07,15,02,44,18.60
2014,07,15,02,45,18.50
2014,07,15,02,46,18.30
2014,07,15,02,47,18.20
2014,07,15,02,48,18.10
2014,07,15,02,49,18.00
2014,07,15,02,50,17.90
2014,07,15,02,51,17.70
2014,07,15,02,52,17.60
2014,07,15,02,53,17.50
2014,07,15,02,54,17.40
2014,07,15,02,55,17.30
2014,07,15,02,56,17.20
2014,07,15,02,57,17.10
2014,07,15,02,58,17.00
2014,07,15,02,59,16.90
2014,07,15,03,00,16.90
2014,07,15,03,01,16.90
2014,07,15,03,02,16.90
2014,07,15,03,03,16.90
2014,07,15,03,04,16.90
2014,07,15,03,05,16.90
2014,07,15,03,06,17.00
2014,07,15,03,07,17.00
2014,07,15,03,08,17.00
2014,07,15,03,09,17.00
2014,07,15,03,10,17.00
2014,07,15,03,11,17.00
2014,07,15,03,12,16.90
2014,07,15,03,13,16.90
2014,07,15,03,14,16.90
2014,07,15,03,15,16.90
2014,07,15,03,16,16.90
2014,07,15,03,17,16.90
2014,07,15,03,18,16.80
2014,07,15,03,19,16.80
2014,07,15,03,20,16.70
2014,07,15,03,21,16.70
2014,07,15,03,22,16.60
2014,07,15,03,23,16.60
2014,07,15,03,24,16.50
2014,07,15,03,25,16.50
2014,07,15,03,26,16.40
2014,07,15,03,27,16.40
2014,07,15,03,28,16.40
2014,07,15,03,29,16.40
2014,07,15,03,30,16.40
2014,07,15,03,31,16.40
2014,07,15,03,32,16.50
2014,07,15,03,33,16.50
2014,07,15,03,34,16.50
2014,07,15,03,35,16.60
2014,07,15,03,36,16.60
2014,07,15,03,37,16.60
2014,07,15,03,38,16.60
2014,07,15,03,39,16.50
2014,07,15,03,40,16.50
2014,07,15,03,41,16.50
2014,07,15,03,42,16.50
2014,07,15,03,43,16.40
2014,07,15,03,44,16.40
2014,07,15,03,45,16.40
2014,07,15,03,46,16.40
2014,07,15,03,47,16.40
2014,07,15,03,48,16.30
2014,07,15,03,49,16.30
2014,07,15,03,50,16.30
2014,07,15,03,51,16.30
2014,07,15,03,52,16.30
2014,07,15,03,53,16.20
2014,07,15,03,54,16.20
2014,07,15,03,55,16.20
2014,07,15,03,56,16.20
2014,07,15,03,57,16.20
2014,07,15,03,58,16.20
2014,07,15,03,59,16.20
2014,07,15,04,00,16.20
2014,07,15,04,01,16.20
2014,07,15,04,02,16.20
2014,07,15,04,03,16.20
2014,07,15,04,04,16.20
2014,07,15,04,05,16.10
2014,07,15,04,06,16.10
2014,07,15,04,07,16.10
2014,07,15,04,08,16.10
2014,07,15,04,09,16.10
2014,07,15,04,10,16.10
2014,07,15,04,11,16.10
2014,07,15,04,12,16.10
2014,07,15,04,13,16.10
2014,07,15,04,14,16.10
2014,07,15,04,15,16.10
2014,07,15,04,16,16.10
2014,07,15,04,17,16.10
2014,07,15,04,18,16.00
2014,07,15,04,19,16.10
2014,07,15,04,20,16.10
2014,07,15,04,21,16.10
2014,07,15,04,22,16.20
2014,07,15,04,23,16.30
2014,07,15,04,24,16.30
2014,07,15,04,25,16.40
2014,07,15,04,26,16.40
2014,07,15,04,27,16.40
2014,07,15,04,28,16.50
2014,07,15,04,29,16.50
2014,07,15,04,30,16.60
2014,07,15,04,31,16.60
2014,07,15,04,32,16.70
2014,07,15,04,33,16.70
2014,07,15,04,34,16.70
2014,07,15,04,35,16.70
2014,07,15,04,36,16.70
2014,07,15,04,37,16.70
2014,07,15,04,38,16.70
2014,07,15,04,39,16.70
2014,07,15,04,40,16.80
2014,07,15,04,41,16.80
2014,07,15,04,42,16.80
2014,07,15,04,43,16.80
2014,07,15,04,44,16.80
2014,07,15,04,45,16.80
2014,07,15,04,46,16.80
2014,07,15,04,47,16.80
2014,07,15,04,48,16.80
2014,07,15,04,49,16.80
2014,07,15,04,50,16.80
2014,07,15,04,51,16.80
2014,07,15,04,52,16.80
2014,07,15,04,53,16.80
2014,07,15,04,54,16.80
2014,07,15,04,55,16.80
2014,07,15,04,56,16.80
2014,07,15,04,57,16.80
2014,07,15,04,58,16.80
2014,07,15,04,59,16.80
2014,07,15,05,00,16.70
2014,07,15,05,01,16.70
2014,07,15,05,02,16.70
2014,07,15,05,03,16.60
2014,07,15,05,04,16.60
2014,07,15,05,05,16.60
2014,07,15,05,06,16.60
2014,07,15,05,07,16.50
2014,07,15,05,08,16.50
2014,07,15,05,09,16.50
2014,07,15,05,10,16.40
2014,07,15,05,11,16.40
2014,07,15,05,12,16.40
2014,07,15,05,13,16.30
2014,07,15,05,14,16.40
2014,07,15,05,15,16.40
2014,07,15,05,16,16.40
2014,07,15,05,17,16.40
2014,07,15,05,18,16.40
2014,07,15,05,19,16.50
2014,07,15,05,20,16.50
2014,07,15,05,21,16.50
2014,07,15,05,22,16.50
2014,07,15,05,23,16.60
2014,07,15,05,24,16.60
2014,07,15,05,25,16.60
2014,07,15,05,26,16.60
2014,07,15,05,27,16.60
2014,07,15,05,28,16.50
2014,07,15,05,29,16.50
2014,07,15,05,30,16.50
2014,07,15,05,31,16.40
2014,07,15,05,32,16.40
2014,07,15,05,33,16.40
2014,07,15,05,34,16.40
2014,07,15,05,35,16.30
2014,07,15,05,36,16.30
2014,07,15,05,37,16.30
2014,07,15,05,38,16.20
2014,07,15,05,39,16.20
2014,07,15,05,40,16.10
2014,07,15,05,41,16.10
2014,07,15,05,42,16.00
2014,07,15,05,43,16.00
2014,07,15,05,44,16.00
2014,07,15,05,45,16.00
2014,07,15,05,46,16.00
2014,07,15,05,47,16.00
2014,07,15,05,48,16.00
2014,07,15,05,49,16.00
2014,07,15,05,50,16.00
2014,07,15,05,51,15.90
2014,07,15,05,52,15.90
2014,07,15,05,53,15.90
2014,07,15,05,54,15.90
2014,07,15,05,55,15.90
2014,07,15,05,56,15.90
2014,07,15,05,57,15.90
2014,07,15,05,58,15.90
2014,07,15,05,59,15.90
2014,07,15,06,00,15.90
2014,07,15,06,01,15.90
2014,07,15,06,02,15.90
2014,07,15,06,03,15.90
2014,07,15,06,04,15.90
2014,07,15,06,05,16.00
2014,07,15,06,06,16.00
2014,07,15,06,07,16.10
2014,07,15,06,08,16.10
2014,07,15,06,09,16.20
2014,07,15,06,10,16.20
2014,07,15,06,11,16.30
2014,07,15,06,12,16.30
2014,07,15,06,13,16.40
2014,07,15,06,14,16.40
2014,07,15,06,15,16.50
2014,07,15,06,16,16.50
2014,07,15,06,17,16.60
2014,07,15,06,18,16.60
2014,07,15,06,19,16.70
2014,07,15,06,20,16.70
2014,07,15,06,21,16.70
2014,07,15,06,22,16.80
2014,07,15,06,23,16.80
2014,07,15,06,24,16.80
2014,07,15,06,25,16.80
2014,07,15,06,26,16.90
2014,07,15,06,27,16.90
2014,07,15,06,28,16.90
2014,07,15,06,29,16.90
2014,07,15,06,30,16.90
2014,07,15,06,31,16.90
2014,07,15,06,32,16.90
2014,07,15,06,33,17.00
2014,07,15,06,34,17.00
2014,07,15,06,35,17.00
2014,07,15,06,36,17.00
2014,07,15,06,37,17.10
2014,07,15,06,38,17.10
2014,07,15,06,39,17.10
2014,07,15,06,40,17.10
2014,07,15,06,41,17.10
2014,07,15,06,42,17.10
2014,07,15,06,43,17.10
2014,07,15,06,44,17.10
2014,07,15,06,45,17.10
2014,07,15,06,46,17.10
2014,07,15,06,47,17.10
2014,07,15,06,48,17.10
2014,07,15,06,49,17.20
2014,07,15,06,50,17.20
2014,07,15,06,51,17.20
2014,07,15,06,52,17.20
2014,07,15,06,53,17.20
2014,07,15,06,54,17.30
2014,07,15,06,55,17.30
2014,07,15,06,56,17.30
2014,07,15,06,57,17.30
2014,07,15,06,58,17.30
2014,07,15,06,59,17.30
2014,07,15,07,00,17.40
2014,07,15,07,01,17.40
2014,07,15,07,02,17.40
2014,07,15,07,03,17.50
2014,07,15,07,04,17.50
2014,07,15,07,05,17.60
2014,07,15,07,06,17.70
2014,07,15,07,07,17.70
2014,07,15,07,08,17.70
2014,07,15,07,09,17.80
2014,07,15,07,10,17.80
2014,07,15,07,11,17.80
2014,07,15,07,12,17.80
2014,07,15,07,13,17.80
2014,07,15,07,14,17.80
2014,07,15,07,15,17.80
2014,07,15,07,16,17.80
2014,07,15,07,17,17.90
2014,07,15,07,18,17.90
2014,07,15,07,19,17.90
2014,07,15,07,20,17.90
2014,07,15,07,21,17.90
2014,07,15,07,22,17.90
2014,07,15,07,23,17.90
2014,07,15,07,24,18.00
2014,07,15,07,25,18.00
2014,07,15,07,26,18.00
2014,07,15,07,27,18.10
2014,07,15,07,28,18.10
2014,07,15,07,29,18.10
2014,07,15,07,30,18.10
2014,07,15,07,31,18.10
2014,07,15,07,32,18.10
2014,07,15,07,33,18.20
2014,07,15,07,34,18.20
2014,07,15,07,35,18.20
2014,07,15,07,36,18.20
2014,07,15,07,37,18.20
2014,07,15,07,38,18.20
2014,07,15,07,39,18.10
2014,07,15,07,40,18.20
2014,07,15,07,41,18.10
2014,07,15,07,42,18.20
2014,07,15,07,43,18.20
2014,07,15,07,44,18.20
2014,07,15,07,45,18.20
2014,07,15,07,46,18.20
2014,07,15,07,47,18.30
2014,07,15,07,48,18.30
2014,07,15,07,49,18.30
2014,07,15,07,50,18.40
2014,07,15,07,51,18.50
2014,07,15,07,52,18.60
2014,07,15,07,53,18.60
2014,07,15,07,54,18.70
2014,07,15,07,55,18.80
2014,07,15,07,56,18.80
2014,07,15,07,57,18.80
2014,07,15,07,58,18.90
2014,07,15,07,59,18.90
2014,07,15,08,00,18.90
2014,07,15,08,01,19.00
2014,07,15,08,02,19.00
2014,07,15,08,03,19.00
2014,07,15,08,04,19.10
2014,07,15,08,05,19.10
2014,07,15,08,06,19.10
2014,07,15,08,07,19.10
2014,07,15,08,08,19.20
2014,07,15,08,09,19.20
2014,07,15,08,10,19.20
2014,07,15,08,11,19.20
2014,07,15,08,12,19.30
2014,07,15,08,13,19.30
2014,07,15,08,14,19.40
2014,07,15,08,15,19.40
2014,07,15,08,16,19.40
2014,07,15,08,17,19.40
2014,07,15,08,18,19.40
2014,07,15,08,19,19.50
2014,07,15,08,20,19.50
2014,07,15,08,21,19.40
2014,07,15,08,22,19.40
2014,07,15,08,23,19.40
2014,07,15,08,24,19.50
2014,07,15,08,25,19.50
2014,07,15,08,26,19.50
2014,07,15,08,27,19.60
2014,07,15,08,28,19.60
2014,07,15,08,29,19.60
2014,07,15,08,30,19.70
2014,07,15,08,31,19.70
2014,07,15,08,32,19.70
2014,07,15,08,33,19.70
2014,07,15,08,34,19.80
2014,07,15,08,35,19.80
2014,07,15,08,36,19.80
2014,07,15,08,37,19.90
2014,07,15,08,38,19.90
2014,07,15,08,39,20.00
2014,07,15,08,40,20.10
2014,07,15,08,41,20.10
2014,07,15,08,42,20.20
2014,07,15,08,43,20.20
2014,07,15,08,44,20.30
2014,07,15,08,45,20.30
2014,07,15,08,46,20.40
2014,07,15,08,47,20.40
2014,07,15,08,48,20.50
2014,07,15,08,49,20.50
2014,07,15,08,50,20.60
2014,07,15,08,51,20.60
2014,07,15,08,52,20.70
2014,07,15,08,53,20.70
2014,07,15,08,54,20.70
2014,07,15,08,55,20.70
2014,07,15,08,56,20.80
2014,07,15,08,57,20.80
2014,07,15,08,58,20.90
2014,07,15,08,59,21.00
2014,07,15,09,00,21.10
2014,07,15,09,01,21.10
2014,07,15,09,02,21.10
2014,07,15,09,03,21.10
2014,07,15,09,04,21.00
2014,07,15,09,05,20.90
2014,07,15,09,06,20.90
2014,07,15,09,07,20.80
2014,07,15,09,08,20.80
2014,07,15,09,09,20.70
2014,07,15,09,10,20.70
2014,07,15,09,11,20.60
2014,07,15,09,12,20.60
2014,07,15,09,13,20.70
2014,07,15,09,14,20.70
2014,07,15,09,15,20.70
2014,07,15,09,16,20.80
2014,07,15,09,17,20.80
2014,07,15,09,18,20.80
2014,07,15,09,19,20.80
2014,07,15,09,20,20.70
2014,07,15,09,21,20.70
2014,07,15,09,22,20.60
2014,07,15,09,23,20.60
2014,07,15,09,24,20.50
2014,07,15,09,25,20.60
2014,07,15,09,26,20.60
2014,07,15,09,27,20.60
2014,07,15,09,28,20.60
2014,07,15,09,29,20.60
2014,07,15,09,30,20.60
2014,07,15,09,31,20.60
2014,07,15,09,32,20.60
2014,07,15,09,33,20.70
2014,07,15,09,34,20.70
2014,07,15,09,35,20.70
2014,07,15,09,36,20.70
2014,07,15,09,37,20.80
2014,07,15,09,38,20.90
2014,07,15,09,39,20.90
2014,07,15,09,40,20.90
2014,07,15,09,41,21.00
2014,07,15,09,42,21.10
2014,07,15,09,43,21.20
2014,07,15,09,44,21.30
2014,07,15,09,45,21.30
2014,07,15,09,46,21.30
2014,07,15,09,47,21.30
2014,07,15,09,48,21.30
2014,07,15,09,49,21.30
2014,07,15,09,50,21.30
2014,07,15,09,51,21.30
2014,07,15,09,52,21.20
2014,07,15,09,53,21.20
2014,07,15,09,54,21.20
2014,07,15,09,55,21.20
2014,07,15,09,56,21.20
2014,07,15,09,57,21.30
2014,07,15,09,58,21.40
2014,07,15,09,59,21.50
2014,07,15,10,00,21.60
2014,07,15,10,01,21.70
2014,07,15,10,02,21.80
2014,07,15,10,03,21.90
2014,07,15,10,04,21.90
2014,07,15,10,05,22.00
2014,07,15,10,06,22.00
2014,07,15,10,07,22.10
2014,07,15,10,08,22.10
2014,07,15,10,09,22.10
2014,07,15,10,10,22.20
2014,07,15,10,11,22.20
2014,07,15,10,12,22.20
2014,07,15,10,13,22.20
2014,07,15,10,14,22.20
2014,07,15,10,15,22.20
2014,07,15,10,16,22.20
2014,07,15,10,17,22.10
2014,07,15,10,18,22.10
2014,07,15,10,19,22.00
2014,07,15,10,20,22.00
2014,07,15,10,21,21.90
2014,07,15,10,22,21.90
2014,07,15,10,23,21.80
2014,07,15,10,24,21.80
2014,07,15,10,25,21.70
2014,07,15,10,26,21.70
2014,07,15,10,27,21.70
2014,07,15,10,28,21.70
2014,07,15,10,29,21.80
2014,07,15,10,30,21.90
2014,07,15,10,31,22.00
2014,07,15,10,32,22.10
2014,07,15,10,33,22.20
2014,07,15,10,34,22.30
2014,07,15,10,35,22.40
2014,07,15,10,36,22.40
2014,07,15,10,37,22.50
2014,07,15,10,38,22.50
2014,07,15,10,39,22.50
2014,07,15,10,40,22.40
2014,07,15,10,41,22.40
2014,07,15,10,42,22.30
2014,07,15,10,43,22.30
2014,07,15,10,44,22.30
2014,07,15,10,45,22.40
2014,07,15,10,46,22.40
2014,07,15,10,47,22.50
2014,07,15,10,48,22.50
2014,07,15,10,49,22.60
2014,07,15,10,50,22.60
2014,07,15,10,51,22.70
2014,07,15,10,52,22.70
2014,07,15,10,53,22.80
2014,07,15,10,54,22.80
2014,07,15,10,55,22.80
2014,07,15,10,56,22.80
2014,07,15,10,57,22.80
2014,07,15,10,58,22.90
2014,07,15,10,59,23.00
2014,07,15,11,00,23.00
2014,07,15,11,01,23.10
2014,07,15,11,02,23.10
2014,07,15,11,03,23.10
2014,07,15,11,04,23.20
2014,07,15,11,05,23.20
2014,07,15,11,06,23.20
2014,07,15,11,07,23.20
2014,07,15,11,08,23.20
2014,07,15,11,09,23.20
2014,07,15,11,10,23.20
2014,07,15,11,11,23.20
2014,07,15,11,12,23.20
2014,07,15,11,13,23.20
2014,07,15,11,14,23.20
2014,07,15,11,15,23.10
2014,07,15,11,16,23.10
2014,07,15,11,17,23.10
2014,07,15,11,18,23.10
2014,07,15,11,19,23.10
2014,07,15,11,20,23.10
2014,07,15,11,21,23.10
2014,07,15,11,22,23.00
2014,07,15,11,23,23.10
2014,07,15,11,24,23.10
2014,07,15,11,25,23.10
2014,07,15,11,26,23.00
2014,07,15,11,27,23.00
2014,07,15,11,28,23.00
2014,07,15,11,29,23.10
2014,07,15,11,30,23.10
2014,07,15,11,31,23.10
2014,07,15,11,32,23.10
2014,07,15,11,33,23.10
2014,07,15,11,34,23.20
2014,07,15,11,35,23.30
2014,07,15,11,36,23.30
2014,07,15,11,37,23.40
2014,07,15,11,38,23.40
2014,07,15,11,39,23.40
2014,07,15,11,40,23.50
2014,07,15,11,41,23.60
2014,07,15,11,42,23.70
2014,07,15,11,43,23.70
2014,07,15,11,44,23.70
2014,07,15,11,45,23.70
2014,07,15,11,46,23.60
2014,07,15,11,47,23.70
2014,07,15,11,48,23.70
2014,07,15,11,49,23.60
2014,07,15,11,50,23.60
2014,07,15,11,51,23.60
2014,07,15,11,52,23.70
2014,07,15,11,53,23.80
2014,07,15,11,54,23.90
2014,07,15,11,55,24.00
2014,07,15,11,56,24.10
2014,07,15,11,57,24.10
2014,07,15,11,58,24.20
2014,07,15,11,59,24.20
2014,07,15,12,00,24.30
2014,07,15,12,01,24.30
2014,07,15,12,02,24.40
2014,07,15,12,03,24.40
2014,07,15,12,04,24.40
2014,07,15,12,05,24.40
2014,07,15,12,06,24.50
2014,07,15,12,07,24.50
2014,07,15,12,08,24.60
2014,07,15,12,09,24.60
2014,07,15,12,10,24.60
2014,07,15,12,11,24.60
2014,07,15,12,12,24.60
2014,07,15,12,13,24.70
2014,07,15,12,14,24.80
2014,07,15,12,15,24.80
2014,07,15,12,16,24.90
2014,07,15,12,17,24.90
2014,07,15,12,18,24.90
2014,07,15,12,19,24.90
2014,07,15,12,20,25.00
2014,07,15,12,21,25.00
2014,07,15,12,22,25.20
2014,07,15,12,23,25.30
2014,07,15,12,24,25.30
2014,07,15,12,25,25.40
2014,07,15,12,26,25.30
2014,07,15,12,27,25.30
2014,07,15,12,28,25.20
2014,07,15,12,29,25.20
2014,07,15,12,30,25.10
2014,07,15,12,31,25.00
2014,07,15,12,32,25.00
2014,07,15,12,33,24.90
2014,07,15,12,34,24.90
2014,07,15,12,35,24.80
2014,07,15,12,36,24.80
2014,07,15,12,37,24.80
2014,07,15,12,38,24.90
2014,07,15,12,39,25.00
2014,07,15,12,40,25.10
2014,07,15,12,41,25.20
2014,07,15,12,42,25.30
2014,07,15,12,43,25.30
2014,07,15,12,44,25.30
2014,07,15,12,45,25.30
2014,07,15,12,46,25.30
2014,07,15,12,47,25.30
2014,07,15,12,48,25.20
2014,07,15,12,49,25.20
2014,07,15,12,50,25.20
2014,07,15,12,51,25.20
2014,07,15,12,52,25.20
2014,07,15,12,53,25.20
2014,07,15,12,54,25.20
2014,07,15,12,55,25.20
2014,07,15,12,56,25.20
2014,07,15,12,57,25.10
2014,07,15,12,58,25.20
2014,07,15,12,59,25.20
2014,07,15,13,00,25.10
2014,07,15,13,01,25.10
2014,07,15,13,02,25.10
2014,07,15,13,03,25.10
2014,07,15,13,04,25.00
2014,07,15,13,05,25.00
2014,07,15,13,06,25.00
2014,07,15,13,07,25.10
2014,07,15,13,08,25.20
2014,07,15,13,09,25.30
2014,07,15,13,10,25.30
2014,07,15,13,11,25.40
2014,07,15,13,12,25.40
2014,07,15,13,13,25.40
2014,07,15,13,14,25.40
2014,07,15,13,15,25.40
2014,07,15,13,16,25.40
2014,07,15,13,17,25.40
2014,07,15,13,18,25.50
2014,07,15,13,19,25.60
2014,07,15,13,20,25.70
2014,07,15,13,21,25.70
2014,07,15,13,22,25.70
2014,07,15,13,23,25.70
2014,07,15,13,24,25.60
2014,07,15,13,25,25.60
2014,07,15,13,26,25.50
2014,07,15,13,27,25.40
2014,07,15,13,28,25.30
2014,07,15,13,29,25.30
2014,07,15,13,30,25.40
2014,07,15,13,31,25.40
2014,07,15,13,32,25.50
2014,07,15,13,33,25.50
2014,07,15,13,34,25.40
2014,07,15,13,35,25.50
2014,07,15,13,36,25.60
2014,07,15,13,37,25.60
2014,07,15,13,38,25.60
2014,07,15,13,39,25.50
2014,07,15,13,40,25.50
2014,07,15,13,41,25.40
2014,07,15,13,42,25.40
2014,07,15,13,43,25.40
2014,07,15,13,44,25.40
2014,07,15,13,45,25.40
2014,07,15,13,46,25.50
2014,07,15,13,47,25.50
2014,07,15,13,48,25.50
2014,07,15,13,49,25.60
2014,07,15,13,50,25.50
2014,07,15,13,51,25.50
2014,07,15,13,52,25.50
2014,07,15,13,53,25.40
2014,07,15,13,54,25.40
2014,07,15,13,55,25.40
2014,07,15,13,56,25.40
2014,07,15,13,57,25.30
2014,07,15,13,58,25.30
2014,07,15,13,59,25.30
2014,07,15,14,00,25.30
2014,07,15,14,01,25.30
2014,07,15,14,02,25.40
2014,07,15,14,03,25.50
2014,07,15,14,04,25.50
2014,07,15,14,05,25.50
2014,07,15,14,06,25.50
2014,07,15,14,07,25.50
2014,07,15,14,08,25.60
2014,07,15,14,09,25.60
2014,07,15,14,10,25.60
2014,07,15,14,11,25.70
2014,07,15,14,12,25.70
2014,07,15,14,13,25.70
2014,07,15,14,14,25.70
2014,07,15,14,15,25.80
2014,07,15,14,16,25.90
2014,07,15,14,17,26.00
2014,07,15,14,18,26.10
2014,07,15,14,19,26.10
2014,07,15,14,20,26.20
2014,07,15,14,21,26.20
2014,07,15,14,22,26.30
2014,07,15,14,23,26.40
2014,07,15,14,24,26.40
2014,07,15,14,25,26.40
2014,07,15,14,26,26.40
2014,07,15,14,27,26.40
2014,07,15,14,28,26.50
2014,07,15,14,29,26.60
2014,07,15,14,30,26.70
2014,07,15,14,31,26.70
2014,07,15,14,32,26.80
2014,07,15,14,33,26.80
2014,07,15,14,34,26.90
2014,07,15,14,35,27.00
2014,07,15,14,36,27.00
2014,07,15,14,37,27.10
2014,07,15,14,38,27.10
2014,07,15,14,39,27.10
2014,07,15,14,40,27.10
2014,07,15,14,41,27.10
2014,07,15,14,42,27.20
2014,07,15,14,43,27.10
2014,07,15,14,44,27.10
2014,07,15,14,45,27.00
2014,07,15,14,46,27.00
2014,07,15,14,47,27.00
2014,07,15,14,48,27.10
2014,07,15,14,49,27.10
2014,07,15,14,50,27.10
2014,07,15,14,51,27.10
2014,07,15,14,52,27.10
2014,07,15,14,53,27.10
2014,07,15,14,54,27.20
2014,07,15,14,55,27.30
2014,07,15,14,56,27.30
2014,07,15,14,57,27.20
2014,07,15,14,58,27.20
2014,07,15,14,59,27.20
2014,07,15,15,00,27.20
2014,07,15,15,01,27.40
2014,07,15,15,02,27.40
2014,07,15,15,03,27.50
2014,07,15,15,04,27.60
2014,07,15,15,05,27.70
2014,07,15,15,06,27.80
2014,07,15,15,07,27.90
2014,07,15,15,08,28.00
2014,07,15,15,09,28.10
2014,07,15,15,10,28.10
2014,07,15,15,11,28.10
2014,07,15,15,12,28.20
2014,07,15,15,13,28.10
2014,07,15,15,14,28.10
2014,07,15,15,15,28.10
2014,07,15,15,16,28.10
2014,07,15,15,17,28.10
2014,07,15,15,18,28.00
2014,07,15,15,19,28.00
2014,07,15,15,20,27.90
2014,07,15,15,21,27.90
2014,07,15,15,22,27.90
2014,07,15,15,23,27.90
2014,07,15,15,24,27.90
2014,07,15,15,25,27.90
2014,07,15,15,26,27.90
2014,07,15,15,27,27.90
2014,07,15,15,28,27.90
2014,07,15,15,29,27.90
2014,07,15,15,30,27.90
2014,07,15,15,31,27.90
2014,07,15,15,32,28.00
2014,07,15,15,33,28.00
2014,07,15,15,34,28.10
2014,07,15,15,35,28.10
2014,07,15,15,36,28.10
2014,07,15,15,37,28.20
2014,07,15,15,38,28.20
2014,07,15,15,39,28.30
2014,07,15,15,40,28.40
2014,07,15,15,41,28.40
2014,07,15,15,42,28.50
2014,07,15,15,43,28.60
2014,07,15,15,44,28.70
2014,07,15,15,45,28.80
2014,07,15,15,46,28.90
2014,07,15,15,47,28.90
2014,07,15,15,48,29.00
2014,07,15,15,49,29.00
2014,07,15,15,50,29.10
2014,07,15,15,51,29.10
2014,07,15,15,52,29.10
2014,07,15,15,53,29.10
2014,07,15,15,54,29.10
2014,07,15,15,55,29.10
2014,07,15,15,56,29.10
2014,07,15,15,57,29.10
2014,07,15,15,58,29.10
2014,07,15,15,59,29.10
2014,07,15,16,00,29.10
2014,07,15,16,01,29.20
2014,07,15,16,02,29.20
2014,07,15,16,03,29.20
2014,07,15,16,04,29.30
2014,07,15,16,05,29.40
2014,07,15,16,06,29.50
2014,07,15,16,07,29.60
2014,07,15,16,08,29.70
2014,07,15,16,09,29.70
2014,07,15,16,10,29.80
2014,07,15,16,11,29.80
2014,07,15,16,12,29.80
2014,07,15,16,13,29.90
2014,07,15,16,14,29.90
2014,07,15,16,15,30.00
2014,07,15,16,16,30.10
2014,07,15,16,17,30.10
2014,07,15,16,18,30.10
2014,07,15,16,19,30.00
2014,07,15,16,20,29.90
2014,07,15,16,21,29.90
2014,07,15,16,22,29.90
2014,07,15,16,23,29.90
2014,07,15,16,24,29.90
2014,07,15,16,25,29.90
2014,07,15,16,26,29.90
2014,07,15,16,27,30.00
2014,07,15,16,28,30.10
2014,07,15,16,29,30.10
2014,07,15,16,30,30.10
2014,07,15,16,31,30.10
2014,07,15,16,32,30.10
2014,07,15,16,33,30.20
2014,07,15,16,34,30.20
2014,07,15,16,35,30.30
2014,07,15,16,36,30.30
2014,07,15,16,37,30.30
2014,07,15,16,38,30.30
2014,07,15,16,39,30.30
2014,07,15,16,40,30.40
2014,07,15,16,41,30.30
2014,07,15,16,42,30.10
2014,07,15,16,43,29.90
2014,07,15,16,44,29.80
2014,07,15,16,45,29.60
2014,07,15,16,46,29.50
2014,07,15,16,47,29.50
2014,07,15,16,48,29.50
2014,07,15,16,49,29.50
2014,07,15,16,50,29.60
2014,07,15,16,51,29.60
2014,07,15,16,52,29.70
2014,07,15,16,53,29.80
2014,07,15,16,54,30.00
2014,07,15,16,55,30.20
2014,07,15,16,56,30.30
2014,07,15,16,57,30.40
2014,07,15,16,58,30.50
2014,07,15,16,59,30.60
2014,07,15,17,00,30.60
2014,07,15,17,01,30.60
2014,07,15,17,02,30.50
2014,07,15,17,03,30.50
2014,07,15,17,04,30.40
2014,07,15,17,05,30.30
2014,07,15,17,06,30.30
2014,07,15,17,07,30.30
2014,07,15,17,08,30.30
2014,07,15,17,09,30.30
2014,07,15,17,10,30.40
2014,07,15,17,11,30.40
2014,07,15,17,12,30.40
2014,07,15,17,13,30.40
2014,07,15,17,14,30.30
2014,07,15,17,15,30.30
2014,07,15,17,16,30.30
2014,07,15,17,17,30.40
2014,07,15,17,18,30.40
2014,07,15,17,19,30.40